| time (UTC) | temp F | wind direction | speed MPH | gust MPH | rain 1hr in | rain 24hr in | rain mn in | humidity % | barometer mb |
| 20260903090045 | 0 | 0.0 | 0.0 | 0.00 | 0.00 | 0.00 | 1015.4 | ||
| 20260903084540 | 0 | 0.0 | 0.0 | 0.00 | 0.00 | 0.00 | 1015.6 | ||
| 20260903083035 | 0 | 0.0 | 0.0 | 0.00 | 0.00 | 0.00 | 1015.6 | ||
| 20260903081536 | 0 | 0.0 | 0.0 | 0.00 | 0.00 | 0.00 | 1015.4 | ||
| 20260903080027 | 0 | 0.0 | 0.0 | 0.00 | 0.00 | 0.00 | 1015.8 | ||
| 20260903074527 | 0 | 0.0 | 0.0 | 0.00 | 0.00 | 0.00 | 1016.0 | ||
| 20260903073019 | 0 | 0.0 | 0.0 | 0.00 | 0.00 | 0.00 | 1015.7 | ||
| 20260903071514 | 0 | 0.0 | 0.0 | 0.00 | 0.00 | 0.00 | 1015.9 | ||
| 20260903070010 | 0 | 0.0 | 0.0 | 0.00 | 0.00 | 0.00 | 1016.1 | ||
| 20260903064505 | 0 | 0.0 | 0.0 | 0.00 | 0.00 | 0.00 | 1016.3 | ||
| 20260903063106 | 0 | 0.0 | 0.0 | 0.00 | 0.00 | 0.00 | 1017.0 | ||
| 20260903061602 | 0 | 0.0 | 0.0 | 0.00 | 0.00 | 0.00 | 1017.3 | ||
| 20260903060052 | 0 | 0.0 | 0.0 | 0.00 | 0.00 | 0.00 | 1017.6 | ||
| 20260903054550 | 0 | 0.0 | 0.0 | 0.00 | 0.00 | 0.00 | 1017.8 | ||
| 20260903053043 | 0 | 0.0 | 0.0 | 0.00 | 0.00 | 0.00 | 1018.0 | ||
| 20260903051543 | 0 | 0.0 | 0.0 | 0.00 | 0.00 | 0.00 | 1018.0 | ||
| 20260903050041 | 0 | 0.0 | 0.0 | 0.00 | 0.00 | 0.00 | 1017.8 | ||
| 20260903044531 | 0 | 0.0 | 0.0 | 0.00 | 0.00 | 0.00 | 1018.3 | ||
| 20260903043028 | 0 | 0.0 | 0.0 | 0.00 | 0.00 | 0.00 | 1018.5 | ||
| 20260903041523 | 0 | 0.0 | 0.0 | 0.00 | 0.00 | 0.00 | 1018.4 | ||
| 20260903040021 | 0 | 0.0 | 0.0 | 0.00 | 0.00 | 0.00 | 1018.3 | ||
| 20260903034522 | 0 | 0.0 | 0.0 | 0.00 | 0.00 | 0.00 | 1018.1 | ||
| 20260903033008 | 0 | 0.0 | 0.0 | 0.00 | 0.00 | 0.00 | 1018.5 | ||
| 20260903031504 | 0 | 0.0 | 0.0 | 0.00 | 0.00 | 0.00 | 1018.7 | ||
| 20260903030100 | 0 | 0.0 | 0.0 | 0.00 | 0.00 | 0.00 | 1019.0 | ||
| 20260903024556 | 0 | 248 | 0.0 | 0.0 | 0.00 | 0.00 | 0.00 | 1019.3 | |
| 20260903023054 | 65 | 250 | 0.0 | 0.0 | 0.00 | 0.00 | 0.00 | 86 | 1019.3 |
| 20260903021556 | 65 | 348 | 0.0 | 0.0 | 0.00 | 0.00 | 0.00 | 86 | 1019.3 |
| 20260903020055 | 64 | 349 | 0.0 | 0.0 | 0.00 | 0.00 | 0.00 | 85 | 1019.3 |
| 20260903014607 | 65 | 245 | 0.0 | 0.0 | 0.00 | 0.00 | 0.00 | 85 | 1019.6 |
| 20260903013102 | 65 | 269 | 0.0 | 0.0 | 0.00 | 0.00 | 0.00 | 84 | 1019.3 |
| 20260903011550 | 65 | 251 | 0.0 | 0.0 | 0.00 | 0.00 | 0.00 | 84 | 1018.9 |
| 20260903010048 | 65 | 128 | 0.0 | 0.0 | 0.00 | 0.00 | 0.00 | 83 | 1019.2 |
| 20260903004553 | 66 | 248 | 0.0 | 0.0 | 0.00 | 0.00 | 0.00 | 82 | 1019.2 |
| 20260903003103 | 66 | 198 | 0.0 | 0.0 | 0.00 | 0.00 | 0.00 | 82 | 1019.2 |
| 20260903001545 | 66 | 206 | 0.0 | 0.0 | 0.00 | 0.00 | 0.00 | 81 | 1019.4 |
| 20260903000054 | 66 | 116 | 0.0 | 0.0 | 0.00 | 0.00 | 0.00 | 80 | 1019.3 |
| 20260902234542 | 67 | 13 | 0.0 | 0.0 | 0.00 | 0.00 | 0.00 | 79 | 1019.9 |
| 20260902233043 | 67 | 329 | 0.0 | 0.0 | 0.00 | 0.00 | 0.00 | 78 | 1020.0 |
| 20260902231545 | 68 | 185 | 0.0 | 3.0 | 0.00 | 0.00 | 0.00 | 77 | 1020.4 |
| 20260902230046 | 68 | 118 | 0.0 | 2.0 | 0.00 | 0.00 | 0.00 | 77 | 1020.1 |
| 20260902224602 | 68 | 105 | 0.0 | 5.0 | 0.00 | 0.00 | 0.00 | 76 | 1020.0 |
| 20260902223040 | 69 | 317 | 0.0 | 0.0 | 0.00 | 0.00 | 0.00 | 75 | 1020.3 |
| 20260902221539 | 69 | 267 | 0.0 | 2.0 | 0.00 | 0.00 | 0.00 | 74 | 1020.8 |
| 20260902220039 | 69 | 109 | 0.0 | 3.0 | 0.00 | 0.00 | 0.00 | 72 | 1020.5 |
| 20260902214607 | 70 | 8 | 0.0 | 6.0 | 0.00 | 0.00 | 0.00 | 71 | 1020.2 |
| 20260902213040 | 70 | 12 | 0.0 | 5.0 | 0.00 | 0.00 | 0.00 | 70 | 1020.1 |
| 20260902211537 | 70 | 355 | 0.0 | 4.0 | 0.00 | 0.00 | 0.00 | 68 | 1020.1 |
| 20260902210039 | 71 | 8 | 1.0 | 8.0 | 0.00 | 0.00 | 0.00 | 67 | 1019.8 |
| 20260902204536 | 71 | 207 | 1.0 | 7.0 | 0.00 | 0.00 | 0.00 | 70 | 1020.1 |
| 20260902203035 | 71 | 96 | 0.0 | 7.0 | 0.00 | 0.00 | 0.00 | 69 | 1020.5 |
| 20260902201539 | 71 | 105 | 0.0 | 5.0 | 0.00 | 0.00 | 0.00 | 69 | 1020.7 |
| 20260902200034 | 71 | 163 | 0.0 | 5.0 | 0.00 | 0.00 | 0.00 | 67 | 1020.7 |
| 20260902194539 | 72 | 191 | 0.0 | 4.0 | 0.00 | 0.00 | 0.00 | 64 | 1020.7 |
| 20260902193031 | 73 | 32 | 0.0 | 1.0 | 0.00 | 0.00 | 0.00 | 69 | 1020.9 |
| 20260902191534 | 73 | 143 | 0.0 | 3.0 | 0.00 | 0.00 | 0.00 | 68 | 1020.9 |
| 20260902190030 | 73 | 180 | 1.0 | 4.0 | 0.00 | 0.00 | 0.00 | 66 | 1021.1 |
| 20260902184530 | 74 | 43 | 2.0 | 8.0 | 0.00 | 0.00 | 0.00 | 67 | 1020.9 |
| 20260902183029 | 74 | 337 | 0.0 | 5.0 | 0.00 | 0.00 | 0.00 | 65 | 1020.9 |
| 20260902181528 | 74 | 34 | 0.0 | 4.0 | 0.00 | 0.00 | 0.00 | 64 | 1021.1 |
| 20260902180027 | 74 | 108 | 0.0 | 4.0 | 0.00 | 0.00 | 0.00 | 66 | 1021.2 |
| 20260902174533 | 74 | 86 | 2.0 | 7.0 | 0.00 | 0.00 | 0.00 | 66 | 1021.0 |
| 20260902173025 | 74 | 215 | 1.0 | 6.0 | 0.00 | 0.00 | 0.00 | 67 | 1021.0 |
| 20260902171523 | 74 | 99 | 0.0 | 5.0 | 0.00 | 0.00 | 0.00 | 68 | 1021.0 |
| 20260902170031 | 73 | 34 | 1.0 | 7.0 | 0.00 | 0.00 | 0.00 | 70 | 1021.2 |
| 20260902164529 | 72 | 239 | 1.0 | 5.0 | 0.00 | 0.00 | 0.00 | 73 | 1021.5 |
| 20260902163017 | 71 | 37 | 0.0 | 4.0 | 0.00 | 0.00 | 0.00 | 77 | 1021.6 |
| 20260902161523 | 72 | 265 | 0.0 | 3.0 | 0.00 | 0.00 | 0.00 | 77 | 1021.8 |
| 20260902160013 | 71 | 44 | 0.0 | 4.0 | 0.00 | 0.00 | 0.00 | 78 | 1022.0 |
| 20260902154517 | 71 | 6 | 0.0 | 0.0 | 0.00 | 0.00 | 0.00 | 80 | 1022.0 |
| 20260902153008 | 70 | 68 | 0.0 | 0.0 | 0.00 | 0.00 | 0.00 | 81 | 1022.1 |
| 20260902151506 | 70 | 226 | 0.0 | 0.0 | 0.00 | 0.00 | 0.00 | 85 | 1022.4 |
| 20260902150007 | 69 | 219 | 0.0 | 0.0 | 0.00 | 0.00 | 0.00 | 86 | 1022.1 |
| 20260902144505 | 69 | 257 | 0.0 | 0.0 | 0.00 | 0.00 | 0.00 | 88 | 1022.3 |
| 20260902143058 | 68 | 12 | 0.0 | 0.0 | 0.00 | 0.00 | 0.00 | 91 | 1022.0 |
| 20260902141554 | 67 | 278 | 0.0 | 0.0 | 0.00 | 0.00 | 0.00 | 93 | 1022.0 |
| 20260902140053 | 65 | 196 | 0.0 | 1.0 | 0.00 | 0.00 | 0.00 | 95 | 1021.8 |
| 20260902134548 | 65 | 333 | 0.0 | 2.0 | 0.00 | 0.00 | 0.00 | 96 | 1021.5 |
| 20260902133056 | 64 | 98 | 0.0 | 0.0 | 0.00 | 0.00 | 0.00 | 97 | 1021.6 |
| 20260902131555 | 64 | 134 | 0.0 | 0.0 | 0.00 | 0.00 | 0.00 | 97 | 1021.4 |
| 20260902130043 | 63 | 101 | 0.0 | 0.0 | 0.00 | 0.00 | 0.00 | 97 | 1021.7 |
| 20260902124542 | 63 | 25 | 0.0 | 0.0 | 0.00 | 0.00 | 0.00 | 97 | 1021.7 |
| 20260902123039 | 62 | 77 | 0.0 | 0.0 | 0.00 | 0.00 | 0.00 | 97 | 1021.9 |
| 20260902121541 | 62 | 230 | 0.0 | 0.0 | 0.00 | 0.00 | 0.00 | 97 | 1021.8 |
| 20260902120035 | 0 | 0.0 | 0.0 | 0.00 | 0.00 | 0.00 | 1022.0 | ||
| 20260902114534 | 0 | 0.0 | 0.0 | 0.00 | 0.00 | 0.00 | 1022.1 | ||
| 20260902113026 | 0 | 0.0 | 0.0 | 0.00 | 0.00 | 0.00 | 1022.2 | ||
| 20260902111522 | 0 | 0.0 | 0.0 | 0.00 | 0.00 | 0.00 | 1022.0 | ||
| 20260902110019 | 0 | 0.0 | 0.0 | 0.00 | 0.00 | 0.00 | 1021.9 | ||
| 20260902104516 | 0 | 0.0 | 0.0 | 0.00 | 0.00 | 0.00 | 1021.8 | ||
| 20260902103012 | 0 | 0.0 | 0.0 | 0.00 | 0.00 | 0.00 | 1021.4 | ||
| 20260902101503 | 0 | 0.0 | 0.0 | 0.00 | 0.00 | 0.00 | 1021.4 | ||
| 20260902094557 | 0 | 0.0 | 0.0 | 0.00 | 0.00 | 0.00 | 1021.0 | ||
| 20260902093051 | 0 | 0.0 | 0.0 | 0.00 | 0.00 | 0.00 | 1020.9 | ||
| 20260902091551 | 0 | 0.0 | 0.0 | 0.00 | 0.00 | 0.00 | 1020.6 |